Location: Bremen
(53.0793°N, 8.8017°E)
Time: 04:59:34
(UTC+02:00)

Vanguard 1 - Visible Passes

Search period start: 22 April 2024 00:00
Search period end: 02 May 2024 00:00
Orbit: 653 x 3825 km, 34.2° (Epoch: 21 April)

Date Brightness Start Highest point End Pass type
(mag) Time Alt. Az. Time Alt. Az. Time Alt. Az.
22 Apr 13.7 03:10:13 12° S 03:21:37 19° SE 03:32:46 10° ESE visible
22 Apr 13.2 05:26:08 10° SW 05:43:39 33° SSE 05:55:46 10° ESE visible
23 Apr 13.6 03:28:45 14° S 03:41:25 24° SSE 03:54:05 10° ESE visible
24 Apr 13.9 01:34:37 10° SE 01:39:48 11° SE 01:45:21 10° ESE visible
24 Apr 13.4 03:47:12 15° SSW 04:01:17 28° SSE 04:14:54 10° ESE visible
25 Apr 13.8 01:53:00 14° SSE 01:59:18 16° SE 02:09:51 10° ESE visible
25 Apr 13.3 04:05:35 15° SSW 04:21:12 32° SSE 04:35:25 10° ESE visible
26 Apr 13.6 02:11:17 18° SSE 02:18:53 21° SE 02:31:57 10° E visible
26 Apr 13.2 04:23:51 13° SW 04:41:09 36° SSE 04:55:44 10° ESE visible
27 Apr 13.5 02:29:30 20° S 02:38:32 26° SE 02:53:12 10° E visible
27 Apr 13.2 04:42:03 11° SW 05:01:07 39° S 05:15:53 10° ESE visible
28 Apr 13.8 00:35:04 12° SE 00:37:04 12° SE 00:43:44 10° ESE visible
28 Apr 13.4 02:47:37 21° S 02:58:16 30° SSE 03:14:00 10° E visible
28 Apr 13.1 05:00:54 10° SW 05:21:07 41° S 05:35:56 10° ESE visible
29 Apr 13.7 00:53:07 16° SE 00:56:23 17° SE 01:07:54 10° ESE visible
29 Apr 13.3 03:05:39 21° SSW 03:18:04 34° SSE 03:34:32 10° E visible
29 Apr 13.1 05:20:44 10° WSW 05:41:06 42° S 05:55:52 10° ESE visible
30 Apr 13.5 01:11:03 20° SSE 01:15:46 22° SE 01:30:00 10° E visible
30 Apr 13.2 03:23:36 20° SSW 03:37:57 38° SSE 03:54:51 10° ESE visible
01 May 13.4 01:28:54 23° SSE 01:35:15 26° SE 01:51:17 10° E visible
01 May 13.2 03:41:26 17° SW 03:57:52 41° SSE 04:15:02 10° ESE visible
01 May 13.8 23:34:07 12° SE 23:34:12 12° SE 23:40:04 10° ESE visible
